Location: Bakhuizen
(52.8696°N, 5.4575°E)
Time: 22:23:53
(UTC+00:00)

Cosmos 1833 - Pass Details

Date: 26 September 2021
Orbit: 834 x 864 km, 70.9° (Epoch: 24 October)

Event Time Altitude Azimuth Distance (km) Brightness Sun altitude
Rises 20:55:56 0° 315° (NW) 3,397 8.6 -29.7°
Reaches altitude 10° 21:00:18 10° 283° (WNW) 2,453 7.3 -30.2°
Maximum altitude 21:01:56 11° 266° (W) 2,356 6.9 -30.3°
Drops below altitude 10° 21:03:36 10° 248° (WSW) 2,447 6.8 -30.5°
Enters shadow 21:05:59 - 228° (SW) 2,862 7.0 -30.8°
